Total_Precipitation_Accumulation
0.39 0.35 0.39 0.46 0.48 0.58 0.73 0.90 1.15 1.04 0.84 0.71 0.67 0.64 0.66 0.72 0.66 0.62 0.61 0.63 0.64 0.63 0.68 0.70 0.73 0.82 0.89 1.00 1.22 1.35 1.44 1.45 1.38 1.34 1.31 1.28 1.23 1.14 1.13 1.05 1.04 1.09 1.25 1.40
0.26 0.24 0.30 0.41 0.51 0.65 0.72 0.78 0.80 0.71 0.67 0.52 0.49 0.44 0.45 0.52 0.53 0.56 0.51 0.46 0.47 0.52 0.55 0.59 0.63 0.70 0.73 0.85 1.03 1.15 1.22 1.28 1.37 1.35 1.20 1.13 1.09 1.08 1.03 0.97 0.95 0.96 1.05 1.19
0.29 0.23 0.35 0.57 0.62 0.69 0.69 0.64 0.56 0.53 0.47 0.35 0.32 0.30 0.31 0.37 0.42 0.51 0.49 0.40 0.37 0.39 0.44 0.51 0.60 0.63 0.69 0.80 0.95 1.02 1.09 1.13 1.20 1.21 1.08 1.01 0.94 0.90 0.91 0.88 0.92 0.92 1.00 1.14
0.38 0.33 0.60 0.78 0.60 0.54 0.60 0.49 0.35 0.32 0.31 0.29 0.25 0.22 0.21 0.22 0.24 0.28 0.32 0.31 0.35 0.33 0.33 0.37 0.46 0.58 0.73 0.78 0.80 0.84 0.94 0.98 0.97 0.99 0.95 0.91 0.82 0.81 0.84 0.88 0.92 0.95 1.02 1.10
0.53 0.52 0.64 0.70 0.47 0.44 0.51 0.50 0.29 0.23 0.22 0.19 0.18 0.17 0.14 0.14 0.16 0.17 0.19 0.23 0.26 0.26 0.26 0.27 0.30 0.34 0.41 0.49 0.55 0.59 0.71 0.78 0.82 0.85 0.84 0.81 0.79 0.88 0.92 0.91 0.93 0.95 0.94 0.96
0.61 0.70 0.79 0.54 0.24 0.22 0.38 0.59 0.28 0.18 0.16 0.14 0.15 0.18 0.16 0.15 0.16 0.15 0.13 0.14 0.17 0.21 0.20 0.19 0.20 0.22 0.26 0.33 0.40 0.44 0.52 0.60 0.67 0.74 0.77 0.83 0.98 1.10 1.13 1.07 0.97 0.90 0.87 0.85
0.65 0.86 0.80 0.47 0.23 0.24 0.47 0.62 0.32 0.18 0.16 0.17 0.18 0.18 0.15 0.16 0.17 0.16 0.13 0.12 0.15 0.17 0.17 0.18 0.19 0.19 0.22 0.28 0.30 0.36 0.38 0.44 0.55 0.71 0.80 0.92 1.09 1.15 1.13 1.07 0.95 0.85 0.81 0.82
0.81 1.03 1.04 0.53 0.31 0.39 0.39 0.27 0.21 0.16 0.14 0.15 0.16 0.16 0.17 0.18 0.16 0.16 0.17 0.15 0.15 0.15 0.14 0.17 0.20 0.19 0.22 0.31 0.33 0.40 0.43 0.44 0.49 0.61 0.75 0.93 1.08 1.10 1.10 1.09 1.01 0.89 0.87 0.85
0.91 0.90 0.69 0.42 0.32 0.26 0.21 0.22 0.16 0.14 0.15 0.16 0.16 0.16 0.16 0.18 0.18 0.17 0.18 0.19 0.18 0.16 0.15 0.16 0.18 0.22 0.24 0.28 0.33 0.37 0.42 0.40 0.41 0.49 0.64 0.81 0.91 0.95 0.99 1.02 0.99 0.94 0.88 0.85
0.50 0.36 0.27 0.23 0.22 0.17 0.13 0.13 0.12 0.11 0.13 0.18 0.22 0.21 0.17 0.17 0.20 0.22 0.21 0.19 0.18 0.18 0.17 0.17 0.18 0.22 0.27 0.33 0.34 0.34 0.36 0.39 0.39 0.39 0.43 0.52 0.61 0.67 0.76 0.82 0.83 0.84 0.85 0.85
0.37 0.24 0.17 0.17 0.18 0.15 0.11 0.11 0.11 0.10 0.11 0.13 0.18 0.20 0.15 0.18 0.19 0.22 0.22 0.24 0.21 0.20 0.22 0.21 0.21 0.22 0.27 0.32 0.36 0.37 0.38 0.41 0.42 0.43 0.45 0.47 0.49 0.53 0.58 0.62 0.74 0.82 0.82 0.84
0.34 0.23 0.19 0.16 0.16 0.15 0.14 0.12 0.11 0.11 0.13 0.16 0.18 0.20 0.20 0.19 0.19 0.19 0.22 0.24 0.25 0.25 0.27 0.26 0.26 0.26 0.27 0.29 0.33 0.35 0.37 0.37 0.36 0.37 0.40 0.41 0.44 0.49 0.54 0.54 0.62 0.66 0.68 0.69
0.17 0.17 0.16 0.14 0.15 0.15 0.13 0.11 0.11 0.11 0.11 0.13 0.16 0.19 0.18 0.18 0.18 0.22 0.25 0.25 0.26 0.27 0.27 0.27 0.27 0.29 0.32 0.32 0.33 0.37 0.37 0.36 0.34 0.32 0.36 0.40 0.41 0.45 0.50 0.50 0.47 0.46 0.51 0.54
0.10 0.14 0.19 0.17 0.15 0.14 0.12 0.11 0.10 0.10 0.11 0.12 0.14 0.18 0.18 0.17 0.18 0.20 0.22 0.24 0.25 0.26 0.25 0.26 0.26 0.27 0.31 0.34 0.39 0.41 0.42 0.44 0.43 0.40 0.41 0.40 0.42 0.47 0.49 0.51 0.47 0.40 0.41 0.45
0.10 0.11 0.14 0.14 0.13 0.11 0.10 0.10 0.11 0.11 0.10 0.13 0.15 0.16 0.18 0.21 0.22 0.24 0.24 0.23 0.21 0.21 0.23 0.26 0.27 0.27 0.28 0.31 0.35 0.39 0.41 0.42 0.44 0.46 0.45 0.44 0.46 0.51 0.50 0.48 0.45 0.40 0.38 0.40
0.12 0.12 0.13 0.14 0.13 0.11 0.10 0.11 0.11 0.12 0.12 0.14 0.16 0.14 0.15 0.18 0.22 0.26 0.29 0.28 0.24 0.22 0.25 0.28 0.28 0.26 0.28 0.32 0.35 0.36 0.37 0.43 0.45 0.46 0.49 0.51 0.50 0.49 0.48 0.48 0.46 0.44 0.42 0.41
0.17 0.16 0.15 0.15 0.13 0.10 0.10 0.12 0.13 0.14 0.14 0.15 0.18 0.16 0.13 0.13 0.15 0.20 0.23 0.26 0.26 0.26 0.25 0.26 0.28 0.30 0.31 0.33 0.37 0.39 0.39 0.41 0.44 0.43 0.42 0.47 0.48 0.48 0.47 0.47 0.45 0.41 0.40 0.42
0.19 0.17 0.15 0.14 0.12 0.11 0.12 0.14 0.15 0.14 0.13 0.16 0.19 0.19 0.17 0.16 0.16 0.18 0.21 0.26 0.26 0.25 0.23 0.23 0.28 0.32 0.33 0.35 0.37 0.40 0.43 0.41 0.38 0.37 0.40 0.42 0.46 0.46 0.47 0.49 0.49 0.45 0.43 0.42
0.17 0.15 0.12 0.12 0.13 0.15 0.16 0.16 0.15 0.14 0.14 0.15 0.17 0.20 0.21 0.21 0.21 0.20 0.22 0.29 0.30 0.28 0.22 0.21 0.26 0.27 0.29 0.32 0.36 0.35 0.39 0.40 0.41 0.40 0.41 0.44 0.48 0.47 0.47 0.47 0.50 0.49 0.49 0.48
0.20 0.18 0.16 0.16 0.17 0.18 0.18 0.17 0.15 0.15 0.14 0.15 0.18 0.20 0.22 0.23 0.22 0.21 0.25 0.31 0.33 0.30 0.24 0.24 0.23 0.23 0.26 0.30 0.37 0.35 0.35 0.34 0.37 0.43 0.46 0.50 0.51 0.51 0.51 0.49 0.51 0.50 0.49 0.49
0.27 0.26 0.22 0.21 0.21 0.18 0.18 0.18 0.17 0.17 0.17 0.17 0.19 0.20 0.22 0.22 0.23 0.24 0.28 0.33 0.29 0.24 0.24 0.29 0.25 0.25 0.29 0.37 0.43 0.39 0.37 0.36 0.38 0.43 0.44 0.46 0.50 0.54 0.61 0.60 0.56 0.53 0.51 0.50
0.28 0.28 0.25 0.22 0.21 0.20 0.19 0.17 0.17 0.18 0.18 0.19 0.19 0.19 0.22 0.25 0.25 0.24 0.24 0.28 0.28 0.31 0.29 0.27 0.27 0.32 0.39 0.42 0.37 0.39 0.41 0.40 0.40 0.42 0.44 0.44 0.47 0.53 0.59 0.63 0.62 0.59 0.57 0.57
0.24 0.24 0.24 0.23 0.23 0.21 0.19 0.19 0.20 0.21 0.22 0.23 0.24 0.26 0.32 0.36 0.34 0.34 0.33 0.29 0.29 0.33 0.30 0.29 0.34 0.44 0.48 0.39 0.36 0.38 0.42 0.46 0.48 0.49 0.52 0.53 0.54 0.56 0.60 0.63 0.67 0.65 0.63 0.64
0.26 0.24 0.23 0.24 0.23 0.22 0.24 0.25 0.24 0.24 0.27 0.30 0.31 0.34 0.41 0.46 0.45 0.41 0.40 0.40 0.39 0.37 0.32 0.35 0.41 0.45 0.46 0.40 0.41 0.44 0.46 0.52 0.56 0.58 0.61 0.63 0.62 0.63 0.66 0.67 0.70 0.71 0.71 0.71
0.33 0.30 0.30 0.33 0.34 0.33 0.33 0.31 0.30 0.28 0.29 0.33 0.34 0.33 0.38 0.43 0.44 0.45 0.46 0.45 0.44 0.43 0.41 0.45 0.48 0.49 0.43 0.42 0.46 0.48 0.52 0.56 0.62 0.64 0.63 0.65 0.66 0.65 0.66 0.69 0.71 0.72 0.73 0.74
0.32 0.31 0.30 0.33 0.36 0.36 0.36 0.35 0.37 0.37 0.38 0.39 0.39 0.38 0.40 0.39 0.40 0.43 0.46 0.48 0.48 0.50 0.47 0.44 0.42 0.44 0.44 0.47 0.50 0.51 0.53 0.54 0.56 0.56 0.58 0.63 0.66 0.67 0.69 0.72 0.72 0.75 0.78 0.79
0.30 0.28 0.27 0.30 0.34 0.35 0.35 0.38 0.44 0.47 0.49 0.51 0.54 0.51 0.48 0.45 0.45 0.46 0.47 0.48 0.53 0.54 0.53 0.52 0.51 0.50 0.51 0.53 0.55 0.56 0.58 0.58 0.55 0.56 0.58 0.62 0.67 0.73 0.76 0.76 0.78 0.81 0.85 0.87